TimeMST,TemperatureF,Dew PointF,Humidity,Sea Level PressureIn,VisibilityMPH,Wind Direction,Wind SpeedMPH,Gust SpeedMPH,PrecipitationIn,Events,Conditions,WindDirDegrees,DateUTC
12:53 AM,-9.9,-17.0,71,30.58,10.0,South,3.5,-,N/A,,Clear,180,2013-01-15 07:53:00
1:53 AM,-13.0,-18.9,75,30.59,10.0,ESE,4.6,-,N/A,,Clear,110,2013-01-15 08:53:00
2:53 AM,-11.0,-18.0,71,30.59,10.0,SW,4.6,-,N/A,,Clear,220,2013-01-15 09:53:00
3:53 AM,-11.9,-18.9,71,30.61,10.0,ESE,3.5,-,N/A,,Clear,120,2013-01-15 10:53:00
4:53 AM,-14.1,-20.0,75,30.64,10.0,ESE,4.6,-,N/A,,Mostly Cloudy,120,2013-01-15 11:53:00
5:53 AM,-9.0,-16.1,71,30.66,10.0,Calm,Calm,-,N/A,,Overcast,0,2013-01-15 12:53:00
6:53 AM,-9.0,-16.1,71,30.70,10.0,WSW,3.5,-,N/A,,Mostly Cloudy,250,2013-01-15 13:53:00
7:53 AM,-8.0,-14.1,75,30.74,10.0,Calm,Calm,-,N/A,,Overcast,0,2013-01-15 14:53:00
8:53 AM,-4.0,-11.0,72,30.76,10.0,Calm,Calm,-,N/A,,Overcast,0,2013-01-15 15:53:00
9:53 AM,-0.9,-9.9,66,30.76,10.0,South,3.5,-,N/A,,Overcast,180,2013-01-15 16:53:00
10:53 AM,3.9,-8.0,58,30.73,10.0,Calm,Calm,-,N/A,,Overcast,0,2013-01-15 17:53:00
11:53 AM,6.1,-6.0,58,30.71,10.0,Calm,Calm,-,N/A,,Overcast,0,2013-01-15 18:53:00
12:53 PM,9.0,-6.0,51,30.68,10.0,Calm,Calm,-,N/A,,Overcast,0,2013-01-15 19:53:00
1:53 PM,12.0,-4.0,49,30.68,10.0,Calm,Calm,-,N/A,,Overcast,0,2013-01-15 20:53:00
2:53 PM,15.1,-4.0,43,30.65,10.0,Calm,Calm,-,N/A,,Overcast,0,2013-01-15 21:53:00
3:53 PM,15.1,-4.0,43,30.66,10.0,Calm,Calm,-,N/A,,Overcast,0,2013-01-15 22:53:00
4:53 PM,14.0,-4.0,45,30.69,10.0,Calm,Calm,-,N/A,,Mostly Cloudy,0,2013-01-15 23:53:00
5:53 PM,12.9,-2.9,49,30.69,10.0,Calm,Calm,-,N/A,,Overcast,0,2013-01-16 00:53:00
6:53 PM,7.0,-4.0,61,30.73,10.0,South,5.8,-,N/A,,Mostly Cloudy,190,2013-01-16 01:53:00
7:53 PM,7.0,-4.0,61,30.75,10.0,SE,3.5,-,N/A,,Partly Cloudy,130,2013-01-16 02:53:00
8:53 PM,3.9,-5.1,66,30.74,10.0,SE,4.6,-,N/A,,Partly Cloudy,140,2013-01-16 03:53:00
9:53 PM,3.9,-4.0,70,30.76,10.0,East,5.8,-,N/A,,Overcast,90,2013-01-16 04:53:00
10:53 PM,6.1,-2.0,69,30.74,10.0,East,5.8,-,N/A,,Overcast,90,2013-01-16 05:53:00
11:53 PM,7.0,-2.0,67,30.73,10.0,SSE,3.5,-,N/A,,Mostly Cloudy,160,2013-01-16 06:53:00